K4AVM-13 Weather Reports


time (UTC)temp
C
wind
direction
speed
KPH
gust
KPH
rain 1hr
cm
rain 24hr
cm
rain mn
cm
humidity
%
barometer
mb
20260504110503 8 160 0.0 0.0 0.00 0.00 0.00 72 1017.7
20260504100419 9 129 0.0 0.0 0.00 0.00 0.00 70 1017.7
20260504081812 8 133 0.0 0.0 0.00 0.00 0.00 70 1018.1
20260504081309 8 143 0.0 0.0 0.00 0.00 0.00 73 1018.1
20260504080805 8 145 0.0 0.0 0.00 0.00 0.00 73 1018.2
20260504080302 8 145 0.0 0.0 0.00 0.00 0.00 73 1018.0
20260504070229 8 135 0.0 0.0 0.00 0.00 0.00 74 1018.1
20260504060150 6 120 0.0 0.0 0.00 0.00 0.00 80 1018.2
20260504050618 6 133 0.0 0.0 0.00 0.00 0.00 77 1018.0
20260504050115 6 131 0.0 0.0 0.00 0.00 0.00 76 1018.0
20260504045612 6 134 0.0 0.0 0.00 0.00 0.00 76 1018.0
20260504045107 6 131 0.0 0.0 0.00 0.00 0.00 76 1018.0
20260504044605 6 141 0.0 0.0 0.00 0.00 0.00 76 1018.1
20260504044102 6 128 0.0 0.0 0.00 0.00 0.00 75 1018.0
20260504043559 7 138 0.0 0.0 0.00 0.00 0.00 74 1018.0
20260504043056 7 134 0.0 0.0 0.00 0.00 0.00 73 1018.0
20260504042553 7 132 0.0 0.0 0.00 0.00 0.00 73 1018.1
20260504042050 7 127 0.0 0.0 0.00 0.00 0.00 73 1018.1
20260504041545 6 133 0.0 0.0 0.00 0.00 0.00 75 1017.9
20260504041042 6 135 0.0 0.0 0.00 0.00 0.00 76 1017.9
20260504040539 6 133 0.0 0.0 0.00 0.00 0.00 76 1018.0
20260504040036 6 133 0.0 0.0 0.00 0.00 0.00 77 1017.9
20260504035533 6 132 0.0 0.0 0.00 0.00 0.00 76 1017.9
20260504035029 6 124 0.0 0.0 0.00 0.00 0.00 76 1017.9
20260504034527 6 129 0.0 0.0 0.00 0.00 0.00 76 1017.9
20260504034024 6 130 0.0 0.0 0.00 0.00 0.00 75 1018.0
20260504033522 6 128 0.0 0.0 0.00 0.00 0.00 75 1018.0
20260504033019 6 132 0.0 0.0 0.00 0.00 0.00 75 1018.0
20260504032516 6 131 0.0 0.0 0.00 0.00 0.00 74 1017.7
20260504032012 6 131 0.0 0.0 0.00 0.00 0.00 74 1017.8
20260504031509 6 129 0.0 0.0 0.00 0.00 0.00 72 1017.7
20260504031005 7 135 0.0 0.0 0.00 0.00 0.00 73 1017.8
20260504030503 7 143 0.0 0.0 0.00 0.00 0.00 72 1017.9
20260504025959 7 145 0.0 0.0 0.00 0.00 0.00 72 1017.8
20260504025456 7 143 0.0 0.0 0.00 0.00 0.00 71 1017.8
20260504024953 7 144 0.0 0.0 0.00 0.00 0.00 71 1017.6
20260504024450 7 145 0.0 0.0 0.00 0.00 0.00 69 1017.8
20260504023947 7 148 0.0 0.0 0.00 0.00 0.00 70 1017.7
20260504023444 7 148 0.0 0.0 0.00 0.00 0.00 71 1017.7
20260504022939 7 150 0.0 0.0 0.00 0.00 0.00 70 1017.7
20260504022435 7 147 0.0 0.0 0.00 0.00 0.00 69 1017.6
20260504021932 7 142 0.0 0.0 0.00 0.00 0.00 70 1017.8
20260504021429 7 141 0.0 0.0 0.00 0.00 0.00 70 1017.7
20260504020926 7 141 0.0 0.0 0.00 0.00 0.00 69 1017.6
20260504020423 7 137 0.0 0.0 0.00 0.00 0.00 69 1017.7
20260504015920 7 141 0.0 0.0 0.00 0.00 0.00 68 1017.6
20260504015415 7 145 0.0 0.0 0.00 0.00 0.00 66 1017.5
20260504014912 8 145 0.0 0.0 0.00 0.00 0.00 65 1017.6
20260504014408 8 149 0.0 0.0 0.00 0.00 0.00 65 1017.6
20260504013904 8 152 0.0 0.0 0.00 0.00 0.00 66 1017.7
20260504013403 8 152 0.0 0.0 0.00 0.00 0.00 66 1017.6
20260504012859 8 152 0.0 0.0 0.00 0.00 0.00 64 1017.5
20260504012356 8 150 0.0 0.0 0.00 0.00 0.00 63 1017.7
20260504011849 8 150 0.0 0.0 0.00 0.00 0.00 61 1017.7
20260504011345 8 151 0.0 0.0 0.00 0.00 0.00 62 1017.5
20260504010841 9 152 0.0 0.0 0.00 0.00 0.00 60 1017.5
20260504010337 9 152 0.0 0.0 0.00 0.00 0.00 60 1017.6
20260504005834 10 153 0.0 0.0 0.00 0.00 0.00 57 1017.6
20260504005330 10 153 0.0 0.0 0.00 0.00 0.00 58 1017.5
20260504004828 10 152 0.0 0.0 0.00 0.00 0.00 56 1017.6
20260504004326 10 152 0.0 0.0 0.00 0.00 0.00 54 1017.4
20260504003822 10 154 0.0 0.0 0.00 0.00 0.00 52 1017.2
20260504003319 11 154 0.0 0.0 0.00 0.00 0.00 51 1017.2
20260504002816 11 154 0.0 0.0 0.00 0.00 0.00 49 1017.3
20260504002312 11 156 0.0 0.0 0.00 0.00 0.00 48 1017.2
20260504001810 11 156 0.0 0.0 0.00 0.00 0.00 47 1017.1
20260504001307 12 154 0.0 0.0 0.00 0.00 0.00 46 1017.3
20260504000804 12 153 0.0 0.0 0.00 0.00 0.00 45 1017.1
20260504000301 12 155 0.0 0.0 0.00 0.00 0.00 44 1016.9
20260503235759 13 157 0.0 0.0 0.00 0.00 0.00 42 1016.9
20260503235256 13 161 0.0 0.0 0.00 0.00 0.00 41 1016.9
20260503234754 13 162 0.0 0.0 0.00 0.00 0.00 39 1016.8
20260503234251 14 172 0.0 0.0 0.00 0.00 0.00 41 1016.9
20260503233748 14 162 0.0 0.0 0.00 0.00 0.00 39 1016.6
20260503233244 15 158 0.0 0.0 0.00 0.00 0.00 38 1016.8
20260503232741 15 160 0.0 0.0 0.00 0.00 0.00 37 1016.6
20260503232238 15 146 0.0 0.0 0.00 0.00 0.00 36 1016.8
20260503231736 15 177 0.0 0.0 0.00 0.00 0.00 36 1016.7
20260503231233 15 159 0.0 1.6 0.00 0.00 0.00 34 1016.7
20260503230729 16 160 0.0 0.0 0.00 0.00 0.00 34 1016.8
20260503230227 16 167 0.0 0.0 0.00 0.00 0.00 34 1016.7
20260503225724 16 130 0.0 0.0 0.00 0.00 0.00 35 1016.6
20260503225224 16 176 0.0 1.6 0.00 0.00 0.00 35 1016.8
20260503224721 16 161 0.0 0.0 0.00 0.00 0.00 33 1016.7
20260503224219 16 124 0.0 0.0 0.00 0.00 0.00 32 1016.7
20260503223716 16 159 0.0 0.0 0.00 0.00 0.00 32 1016.9
20260503223214 16 154 0.0 0.0 0.00 0.00 0.00 33 1016.7
20260503222710 16 177 0.0 0.0 0.00 0.00 0.00 33 1016.7
20260503222208 16 178 0.0 0.0 0.00 0.00 0.00 33 1016.8
20260503221706 17 174 3.2 4.8 0.00 0.00 0.00 32 1016.9
20260503221203 17 174 3.2 4.8 0.00 0.00 0.00 32 1016.7
20260503220700 16 166 1.6 1.6 0.00 0.00 0.00 32 1017.0
20260503220156 16 76 0.0 4.8 0.00 0.00 0.00 32 1017.0
20260503215653 16 168 0.0 3.2 0.00 0.00 0.00 33 1017.0
20260503215150 17 238 1.6 3.2 0.00 0.00 0.00 30 1017.0
20260503214648 17 178 1.6 4.8 0.00 0.00 0.00 31 1016.9
20260503214144 18 179 0.0 12.9 0.00 0.00 0.00 31 1017.0
20260503213638 18 204 1.6 3.2 0.00 0.00 0.00 30 1016.9
20260503213134 18 340 3.2 9.7 0.00 0.00 0.00 28 1016.8
20260503212632 19 196 1.6 4.8 0.00 0.00 0.00 30 1017.0
20260503212129 18 173 0.0 1.6 0.00 0.00 0.00 27 1016.9
20260503211627 18 112 1.6 3.2 0.00 0.00 0.00 28 1016.8
20260503211122 18 206 0.0 3.2 0.00 0.00 0.00 30 1016.9
20260503210618 18 190 1.6 3.2 0.00 0.00 0.00 29 1017.1
20260503210115 18 141 1.6 9.7 0.00 0.00 0.00 29 1017.2
20260503205611 18 200 1.6 6.4 0.00 0.00 0.00 30 1017.1
20260503205107 18 189 1.6 4.8 0.00 0.00 0.00 31 1017.0
20260503204604 19 196 3.2 3.2 0.00 0.00 0.00 28 1016.9
20260503204101 18 192 1.6 4.8 0.00 0.00 0.00 30 1016.7
20260503203558 18 182 3.2 4.8 0.00 0.00 0.00 29 1016.9
20260503203055 18 191 0.0 1.6 0.00 0.00 0.00 32 1017.0
20260503202553 18 309 3.2 6.4 0.00 0.00 0.00 29 1017.0
20260503202051 18 309 3.2 6.4 0.00 0.00 0.00 29 1017.0
20260503201549 18 2 4.8 4.8 0.00 0.00 0.00 28 1016.9
20260503201046 18 204 1.6 3.2 0.00 0.00 0.00 28 1017.0
20260503200542 18 180 1.6 3.2 0.00 0.00 0.00 29 1017.2
20260503200039 18 185 3.2 3.2 0.00 0.00 0.00 32 1017.3
20260503195536 17 177 1.6 3.2 0.00 0.00 0.00 30 1017.5
20260503195033 17 39 1.6 4.8 0.00 0.00 0.00 32 1017.4
20260503194530 17 216 4.8 9.7 0.00 0.00 0.00 30 1017.7
20260503194030 18 62 3.2 4.8 0.00 0.00 0.00 29 1017.3
20260503193527 18 185 1.6 3.2 0.00 0.00 0.00 31 1017.6
20260503193022 17 179 3.2 3.2 0.00 0.00 0.00 33 1017.7
20260503192518 16 193 0.0 0.0 0.00 0.00 0.00 32 1017.7
20260503192014 17 232 3.2 4.8 0.00 0.00 0.00 32 1017.9
20260503191511 17 218 3.2 6.4 0.00 0.00 0.00 32 1018.0
20260503191008 17 182 1.6 4.8 0.00 0.00 0.00 30 1018.0
20260503190505 17 183 1.6 1.6 0.00 0.00 0.00 31 1017.9
20260503190002 17 128 0.0 9.7 0.00 0.00 0.00 33 1018.1
20260503185458 16 249 3.2 22.5 0.00 0.00 0.00 31 1018.4
20260503184958 17 229 3.2 4.8 0.00 0.00 0.00 30 1017.9
20260503184454 17 20 0.0 3.2 0.00 0.00 0.00 31 1018.4
20260503183951 17 201 3.2 9.7 0.00 0.00 0.00 36 1018.4
20260503183448 17 355 3.2 11.3 0.00 0.00 0.00 33 1018.5
20260503182944 16 108 1.6 11.3 0.00 0.00 0.00 31 1018.6
20260503182444 16 335 0.0 11.3 0.00 0.00 0.00 30 1018.5
20260503181941 16 176 1.6 6.4 0.00 0.00 0.00 32 1018.8
20260503181438 16 184 1.6 4.8 0.00 0.00 0.00 36 1018.6
20260503180933 16 173 1.6 3.2 0.00 0.00 0.00 33 1018.4
20260503180432 15 211 4.8 4.8 0.00 0.00 0.00 33 1018.6
20260503175929 17 38 3.2 9.7 0.00 0.00 0.00 33 1018.6
20260503175427 16 195 1.6 3.2 0.00 0.00 0.00 35 1018.7
20260503174922 16 325 8.0 12.9 0.00 0.00 0.00 32 1018.3
20260503174420 16 161 1.6 4.8 0.00 0.00 0.00 33 1018.6
20260503173914 16 306 3.2 9.7 0.00 0.00 0.00 32 1018.8
20260503173411 15 171 0.0 3.2 0.00 0.00 0.00 39 1018.9
20260503172908 15 176 3.2 4.8 0.00 0.00 0.00 36 1018.9
20260503172406 15 184 3.2 4.8 0.00 0.00 0.00 33 1018.8
20260503171901 16 2 4.8 9.7 0.00 0.00 0.00 34 1018.9
20260503171358 15 193 3.2 4.8 0.00 0.00 0.00 33 1019.0
20260503170856 15 60 4.8 6.4 0.00 0.00 0.00 33 1019.2
20260503170352 15 187 1.6 6.4 0.00 0.00 0.00 35 1019.3
20260503150744 12 8 1.6 12.9 0.00 0.00 0.00 36 1019.8
20260503150240 13 188 3.2 12.9 0.00 0.00 0.00 38 1020.0
20260503140205 11 209 3.2 4.8 0.00 0.00 0.00 35 1019.8
20260503131134 10 313 11.3 17.7 0.00 0.00 0.00 50 1019.8
20260503130632 10 143 3.2 22.5 0.00 0.00 0.00 52 1020.0
20260503130129 10 344 4.8 11.3 0.00 0.00 0.00 53 1019.7